Temperature
29 30 30 30 29 29 29 30 30 30 29 29 28 27 26 25 24 23 22 21 21 20 20 19 19 19 19 19 19 19 19 19 19 19 18 18 18 17 17 17 17 16 16 16
28 29 29 29 29 29 29 29 29 29 29 28 27 26 25 24 23 22 21 21 20 20 19 19 19 19 19 19 19 19 19 18 18 18 18 18 17 17 17 17 16 16 16 16
28 28 28 28 29 29 29 29 29 29 28 27 27 26 25 23 23 22 21 21 20 19 19 19 19 19 19 19 19 18 18 18 18 18 17 17 17 17 17 17 16 16 16 16
28 27 26 28 28 28 28 28 28 28 27 26 26 24 23 23 22 21 21 20 20 19 19 19 19 18 18 18 18 18 17 17 17 17 17 17 17 16 16 16 16 16 16 16
27 27 27 27 27 27 27 27 27 27 26 25 24 24 23 22 21 20 20 20 19 19 19 19 18 18 18 18 18 17 17 17 17 17 16 16 16 16 16 16 16 15 15 15
26 26 26 27 27 26 26 26 26 26 25 25 24 25 24 21 20 20 19 19 18 18 18 18 18 18 17 17 17 17 17 16 16 16 16 16 16 16 16 15 15 15 15 15
25 25 27 25 25 25 25 25 24 24 24 23 23 24 22 20 19 19 18 18 18 18 18 17 17 17 17 16 16 16 16 16 16 16 15 15 15 15 15 15 15 14 14 14
25 25 25 23 24 24 24 22 22 22 22 21 21 20 19 19 18 18 18 17 17 17 17 17 16 16 16 16 16 16 16 16 15 15 15 15 15 15 15 14 14 14 14 14
24 24 22 21 22 21 21 21 21 21 20 20 20 19 18 18 17 17 17 17 17 16 16 16 16 16 16 16 15 15 15 15 15 15 15 15 15 14 14 14 14 14 13 13
22 22 21 20 20 20 20 20 20 19 19 19 19 18 18 17 17 16 16 16 16 16 16 15 15 15 15 15 15 15 15 15 15 15 15 14 14 14 14 14 13 13 13 13
22 21 20 19 19 19 19 19 19 18 18 18 18 17 17 16 16 16 15 15 15 15 15 15 15 15 15 14 14 14 14 14 14 14 14 13 13 13 13 13 13 13 13 13
22 21 21 20 19 18 18 18 18 18 17 17 17 17 16 16 16 15 15 15 15 15 15 14 14 14 14 14 14 14 14 14 13 13 13 13 13 13 13 13 13 13 13 12
19 19 19 18 18 18 17 17 17 17 17 16 16 16 16 16 15 15 15 14 14 14 14 14 14 13 13 13 13 13 13 13 13 13 13 12 12 13 12 12 12 12 12 12
17 17 18 18 17 17 17 17 17 16 16 16 16 15 15 15 15 14 14 14 14 14 14 13 13 13 13 13 13 13 12 12 12 12 12 12 12 12 12 12 12 12 12 12
17 17 17 17 16 16 16 16 16 16 16 15 15 15 15 14 14 14 14 13 14 13 13 13 13 12 12 12 12 12 12 12 12 12 12 12 11 11 12 12 12 12 11 11
16 16 16 16 16 16 16 16 16 15 15 15 14 14 14 14 14 13 13 13 13 13 13 12 12 12 12 12 12 12 11 11 11 11 11 11 11 11 11 11 11 11 11 11
16 16 16 15 15 15 15 15 15 15 15 14 14 14 13 13 13 13 13 13 12 12 12 12 11 11 11 11 11 11 11 11 11 11 11 11 11 11 11 11 11 11 11 11
15 15 15 15 15 15 15 14 14 14 14 14 13 13 13 13 12 12 12 12 12 12 12 11 11 11 11 11 11 11 11 11 11 11 11 10 10 10 10 10 10 10 10 10
15 15 15 14 14 14 14 14 14 13 13 13 13 12 12 12 12 12 11 11 11 11 11 11 11 10 10 10 10 10 10 10 10 10 10 10 10 10 10 10 10 10 10 10
14 14 14 14 14 13 13 13 13 13 12 12 12 12 12 11 11 11 11 11 11 11 10 10 10 10 10 10 10 10 10 10 10 10 10 10 10 10 10 10 10 10 9 9
13 13 13 13 13 13 13 12 12 12 12 11 11 11 11 11 11 10 11 11 10 10 10 10 10 10 10 10 9 9 9 9 9 9 9 9 9 9 9 9 9 9 9 9
13 13 13 12 12 12 12 12 12 11 11 11 11 11 10 10 10 10 10 10 10 9 9 9 9 9 9 9 9 9 9 9 9 9 9 9 9 9 9 9 9 9 9 9
12 12 12 12 12 11 11 11 11 11 10 10 10 10 10 10 10 10 10 9 9 9 9 9 9 9 9 8 8 8 9 9 9 9 9 9 9 9 9 9 8 8 8 8
11 11 11 11 11 11 10 10 10 10 10 10 10 10 9 9 9 9 9 9 9 9 8 8 8 8 8 8 8 8 8 8 8 8 8 8 8 8 8 8 8 8 8 8
10 10 10 10 10 10 10 10 10 9 9 9 9 9 9 9 9 9 9 8 8 8 8 8 8 7 7 7 8 8 8 8 8 8 8 8 8 8 8 8 8 8 8 8
10 10 10 10 10 10 10 9 9 9 9 9 9 9 9 8 8 8 8 8 8 8 7 7 7 7 7 7 7 7 7 7 7 7 7 7 8 8 8 8 8 7 7 7
10 10 10 9 9 9 9 9 9 9 9 9 9 8 8 8 8 8 8 8 8 7 7 7 7 7 7 7 7 7 7 7 7 7 7 7 7 7 7 7 7 7 7 7
Wind_Speed
9 7 8 10 11 12 14 14 14 10 8 5 3 3 3 4 4 5 5 5 4 4 4 4 4 4 5 4 4 5 5 5 4 4 4 4 5 5 5 5 5 5 4 5
10 10 10 11 12 12 13 13 12 10 8 2 2 3 4 4 4 4 4 4 4 3 3 3 4 4 5 5 5 5 5 5 4 4 4 4 5 5 5 5 4 4 5 5
12 10 10 14 12 12 12 11 11 11 6 4 5 4 4 4 4 4 4 4 4 4 3 4 4 5 5 5 5 5 5 4 4 4 4 4 4 4 5 5 4 4 5 5
10 9 14 7 3 6 8 8 8 6 4 5 5 5 4 3 3 3 3 3 3 3 3 3 4 4 4 4 5 5 5 4 4 5 4 4 4 4 4 4 4 5 5 5
11 14 13 8 5 6 8 8 7 7 6 5 4 5 5 2 2 2 2 2 2 2 2 2 3 4 4 4 4 4 4 4 4 4 4 4 5 5 4 4 4 5 5 5
11 13 14 6 4 3 5 8 4 5 6 6 6 6 3 3 3 3 3 3 2 2 3 2 2 3 4 3 3 3 3 3 4 4 4 4 4 4 4 4 5 5 4 4
14 13 9 1 3 5 8 2 3 3 4 5 4 1 4 4 4 4 4 4 4 3 3 2 2 2 2 2 2 2 3 3 3 4 4 4 3 4 4 4 4 4 4 4
11 14 9 3 4 3 1 3 3 2 2 3 3 4 5 4 4 5 5 5 4 4 3 3 2 2 2 1 1 1 2 3 3 3 4 3 3 4 4 4 5 4 4 4
6 4 3 2 1 1 1 2 2 2 3 4 4 5 5 4 4 4 4 4 4 4 4 4 3 2 1 1 1 1 2 2 3 3 3 3 4 4 4 4 4 3 3 4
4 2 2 2 1 1 1 1 1 2 2 3 4 5 5 4 4 4 4 4 4 4 3 3 3 2 2 1 1 1 2 2 3 3 3 3 3 4 3 4 4 4 4 5
5 2 3 3 2 1 1 2 2 3 3 3 4 4 4 4 4 4 3 3 3 3 2 2 2 2 2 2 1 0 1 2 3 3 2 2 3 2 3 3 2 4 4 4
4 2 3 2 1 2 2 3 3 3 3 3 3 4 4 4 4 3 3 3 2 2 2 2 2 2 2 2 1 1 1 1 2 2 2 2 2 2 0 2 2 2 3 4
2 1 1 1 2 2 3 3 3 3 4 3 3 3 4 3 3 3 3 2 2 1 1 1 1 1 1 1 1 1 2 2 2 2 2 2 2 3 3 2 4 5 5 4
2 2 2 2 2 3 3 3 4 4 3 3 3 3 2 3 3 3 2 2 1 1 1 1 1 1 1 1 1 1 2 1 1 2 2 2 3 3 3 4 3 3 5 6
2 3 3 2 3 3 4 4 4 4 3 3 2 2 2 2 2 2 1 1 1 1 0 1 2 2 2 2 1 2 2 2 2 2 3 3 3 4 4 4 4 4 3 3
3 3 3 4 4 4 4 5 5 4 3 3 2 2 1 1 1 1 0 0 1 1 1 1 2 3 3 3 2 2 2 1 3 3 3 3 3 4 4 4 5 4 4 3
4 4 4 5 5 5 5 4 4 3 3 2 2 1 1 1 1 1 1 1 1 1 2 2 3 4 3 3 3 3 2 2 3 4 3 3 3 4 4 4 4 5 4 2
5 4 4 4 4 4 4 3 3 2 2 1 1 1 1 1 1 1 1 1 2 2 2 3 3 3 3 3 3 3 3 3 3 3 3 3 4 4 4 5 5 5 5 3
4 3 3 3 3 4 3 3 2 2 1 1 1 1 1 1 1 2 2 2 3 3 2 2 2 3 3 2 3 3 4 3 3 4 3 3 4 4 5 5 5 5 5 5
4 4 3 3 3 3 2 2 2 2 1 1 1 2 2 2 2 2 2 3 3 3 3 2 3 3 3 3 4 4 4 4 4 4 4 4 4 5 5 5 5 5 5 5
5 5 5 4 3 3 2 2 2 2 1 1 2 2 2 2 2 3 4 3 2 2 3 3 3 3 3 3 5 5 4 5 5 5 5 5 5 5 5 6 6 5 5 6
4 5 5 4 3 3 2 1 1 1 1 1 2 2 2 2 3 3 4 3 3 2 3 3 3 2 4 5 5 5 5 6 6 6 6 6 6 6 6 6 6 6 6 6
4 4 4 3 3 2 2 1 1 1 1 1 1 2 2 3 3 4 4 2 3 2 4 4 2 2 4 5 5 6 6 7 6 6 6 6 7 6 6 7 6 6 6 6
3 3 2 2 2 2 1 0 1 1 1 1 1 2 2 3 3 3 3 2 2 2 4 2 1 3 6 5 6 6 6 6 6 6 6 7 7 7 7 7 7 7 6 6
2 2 2 2 2 1 1 1 1 1 1 1 1 1 2 2 3 3 3 3 2 3 4 3 3 5 6 6 6 6 6 5 6 6 7 7 7 7 7 7 7 7 6 6
2 1 2 1 1 0 1 1 1 0 0 1 1 2 2 2 3 3 3 3 4 4 4 4 4 5 5 5 6 6 6 6 6 6 7 8 8 8 8 7 8 7 7 7
2 2 1 1 1 0 0 0 0 0 1 1 2 2 2 2 3 3 4 4 4 4 4 4 4 4 5 5 5 5 5 6 6 6 7 7 7 7 7 8 7 7 7 7
Wind_Direction
255 255 236 233 229 227 236 250 262 264 260 255 233 205 182 171 162 160 157 158 160 163 168 174 179 183 184 187 191 195 190 189 196 203 205 205 207 210 206 210 212 207 209 209
238 236 235 238 236 235 237 244 248 254 253 248 176 176 180 180 173 170 169 171 171 170 173 185 193 194 192 193 197 194 193 198 192 193 194 199 204 208 205 207 214 215 214 213
243 226 236 241 236 237 237 241 244 248 244 205 191 188 193 186 182 183 181 177 177 178 186 197 203 200 199 199 197 195 198 200 191 190 186 193 203 201 205 207 209 213 220 221
244 229 242 248 225 237 242 245 245 238 220 213 204 190 178 180 182 177 183 184 191 189 184 190 192 193 199 191 191 199 202 201 197 195 192 190 196 204 209 209 211 215 219 223
241 240 244 227 208 220 234 241 235 217 205 197 180 180 170 147 165 167 165 168 181 175 161 167 168 174 181 182 183 193 200 203 203 200 202 202 203 208 210 209 211 219 220 223
236 246 251 239 164 196 235 233 204 205 200 190 189 218 180 145 139 129 119 112 108 109 115 114 127 163 173 179 183 196 206 209 207 204 208 209 208 210 208 210 212 218 213 220
237 244 246 68 145 191 228 239 125 175 188 186 198 253 121 124 117 112 109 107 106 102 104 104 118 144 166 177 195 205 206 203 195 198 205 205 207 212 213 214 216 220 217 222
236 243 238 89 164 217 4 58 113 134 147 153 133 114 120 121 116 110 108 103 100 99 87 79 93 122 130 169 244 222 207 205 196 200 210 192 200 210 214 218 217 216 221 235
249 255 63 123 156 53 48 103 116 129 134 142 140 133 127 121 114 106 101 97 93 93 86 73 66 75 78 16 309 250 224 213 206 209 215 209 203 204 205 206 222 223 226 239
244 204 149 149 134 102 101 136 131 136 146 153 146 136 127 120 113 104 98 94 95 95 89 80 69 51 28 2 330 268 246 231 216 208 213 214 224 214 214 219 227 235 241 244
231 210 195 202 188 154 119 121 124 130 139 144 146 141 133 129 123 115 106 99 96 95 87 72 65 47 21 9 352 312 261 253 248 230 219 226 234 252 243 244 248 253 256 254
254 210 228 207 174 183 163 146 140 133 127 133 143 142 138 133 131 132 124 113 106 99 82 66 53 40 14 359 352 332 312 296 273 256 236 234 235 257 247 244 183 223 267 275
285 285 280 161 167 172 166 153 147 145 140 138 132 140 144 141 147 148 144 138 124 107 82 63 53 31 342 332 339 325 310 305 298 288 258 246 248 252 261 238 209 217 227 240
231 219 204 185 175 161 155 150 145 138 132 131 132 134 139 145 147 152 155 157 136 106 75 49 3 332 322 313 314 302 289 289 276 286 279 265 260 263 264 267 258 246 216 210
215 235 218 181 158 157 158 157 153 150 146 142 142 147 145 151 154 152 143 158 166 178 233 314 313 320 317 297 284 279 281 288 294 294 284 276 269 267 267 267 266 265 256 212
223 207 184 176 173 174 174 172 170 165 162 158 148 145 145 156 174 184 166 203 232 262 293 297 302 307 301 294 285 275 278 291 278 275 274 273 271 272 273 271 272 271 269 270
216 204 191 188 186 182 184 184 178 171 166 162 150 135 136 157 179 202 235 266 288 294 294 298 301 302 296 291 284 284 283 259 237 259 268 272 274 276 277 275 276 279 276 274
230 223 210 199 191 184 184 183 177 166 164 168 161 177 199 208 228 247 273 293 298 301 313 309 308 300 295 298 296 291 282 277 272 274 277 278 283 280 277 276 275 276 279 261
211 203 197 194 194 191 187 183 182 167 152 178 208 241 253 252 257 268 284 283 282 288 310 326 324 287 291 303 299 277 279 278 279 279 277 275 274 279 281 280 279 278 279 279
191 180 176 175 174 174 173 171 174 172 176 202 241 256 262 265 274 274 270 275 292 315 311 306 290 290 292 294 290 282 282 281 280 280 275 274 275 277 280 282 283 282 279 276
175 172 171 168 163 160 161 169 182 195 211 223 248 262 266 264 264 268 272 279 305 310 291 264 268 287 295 310 280 283 282 282 281 281 278 275 274 274 276 279 280 281 280 279
163 161 158 153 150 152 150 163 192 217 230 236 252 261 265 265 271 275 275 287 291 292 281 284 291 345 335 307 285 286 283 277 276 277 277 277 275 272 270 273 275 277 280 283
143 144 146 151 152 143 132 137 161 196 221 226 240 260 269 281 286 286 286 302 300 313 294 297 343 4 310 289 287 284 278 275 275 277 279 279 277 275 275 274 273 275 277 278
110 121 131 136 134 136 150 187 170 169 202 221 235 270 281 283 288 299 314 334 314 296 290 309 340 288 278 279 281 280 279 279 279 280 279 279 277 276 276 276 275 275 275 277
112 117 119 121 128 131 143 161 157 168 224 258 267 278 290 304 310 317 318 312 316 287 293 280 228 254 275 287 285 286 286 288 289 287 283 279 277 278 279 278 276 274 273 272
104 102 92 98 95 125 159 153 149 149 245 290 322 343 338 333 324 319 310 308 309 297 292 297 294 279 289 293 293 291 291 288 282 279 279 280 278 277 279 280 279 277 276 272
132 127 122 104 95 88 100 156 261 308 320 318 326 334 330 328 324 322 315 310 310 304 303 304 302 296 295 296 296 294 293 293 291 288 287 285 282 281 282 279 278 278 279 277
Height
1468 1466 1467 1470 1472 1473 1476 1474 1477 1474 1474 1475 1479 1482 1486 1489 1492 1494 1496 1497 1499 1500 1502 1503 1504 1505 1506 1507 1508 1510 1510 1512 1512 1513 1514 1515 1515 1516 1517 1517 1518 1519 1519 1520
1473 1468 1468 1471 1469 1470 1471 1471 1471 1473 1475 1475 1479 1483 1486 1488 1491 1493 1494 1496 1498 1499 1499 1500 1501 1501 1503 1504 1505 1506 1507 1508 1509 1510 1511 1511 1512 1513 1513 1514 1515 1516 1516 1516
1473 1468 1471 1475 1467 1467 1467 1466 1469 1471 1473 1475 1479 1482 1485 1488 1490 1491 1493 1495 1496 1496 1497 1498 1498 1499 1500 1501 1502 1503 1504 1505 1506 1507 1508 1508 1509 1510 1510 1511 1511 1512 1513 1513
1470 1476 1487 1468 1462 1464 1466 1467 1467 1469 1472 1475 1478 1483 1486 1488 1489 1490 1491 1493 1494 1495 1495 1496 1497 1497 1498 1499 1500 1501 1502 1502 1503 1504 1504 1505 1505 1506 1507 1507 1508 1508 1509 1509
1471 1474 1470 1465 1464 1466 1468 1469 1467 1469 1473 1476 1479 1482 1484 1487 1489 1490 1490 1491 1492 1493 1494 1494 1495 1495 1496 1497 1497 1498 1499 1499 1500 1501 1501 1502 1502 1503 1504 1504 1505 1505 1506 1506
1470 1476 1476 1463 1462 1466 1469 1471 1468 1471 1473 1475 1478 1478 1481 1486 1487 1488 1489 1490 1490 1491 1492 1492 1492 1493 1494 1494 1495 1495 1496 1497 1497 1498 1498 1499 1499 1500 1501 1501 1502 1502 1502 1503
1468 1470 1462 1463 1465 1468 1474 1471 1472 1472 1474 1476 1477 1479 1483 1485 1486 1487 1488 1489 1489 1489 1490 1490 1490 1491 1492 1492 1492 1493 1494 1494 1495 1495 1495 1496 1497 1497 1497 1498 1498 1498 1499 1499
1466 1470 1468 1467 1467 1468 1470 1472 1473 1474 1476 1477 1479 1481 1482 1484 1485 1486 1487 1487 1488 1489 1489 1489 1489 1490 1490 1490 1490 1491 1491 1491 1492 1492 1493 1493 1493 1494 1494 1494 1495 1494 1495 1495
1462 1466 1469 1469 1470 1472 1473 1474 1475 1475 1477 1478 1479 1481 1483 1484 1485 1486 1487 1487 1487 1488 1488 1488 1488 1488 1488 1488 1488 1488 1488 1488 1488 1489 1490 1490 1490 1490 1490 1490 1492 1491 1492 1492
1465 1465 1469 1471 1472 1473 1474 1475 1476 1476 1477 1478 1480 1481 1483 1484 1486 1486 1486 1486 1486 1487 1487 1487 1487 1487 1487 1487 1486 1486 1485 1485 1486 1486 1486 1487 1487 1488 1488 1488 1488 1488 1488 1489
1466 1468 1471 1472 1473 1473 1474 1475 1476 1477 1478 1479 1480 1481 1483 1484 1486 1486 1486 1486 1486 1487 1487 1487 1487 1486 1486 1485 1484 1483 1483 1483 1484 1484 1484 1484 1484 1484 1485 1485 1485 1485 1485 1485
1464 1467 1469 1471 1472 1473 1474 1474 1475 1476 1478 1479 1480 1481 1482 1483 1485 1486 1486 1486 1486 1486 1487 1486 1485 1485 1485 1484 1483 1482 1481 1481 1482 1482 1481 1481 1481 1482 1481 1482 1481 1481 1481 1481
1468 1469 1469 1471 1472 1473 1473 1474 1475 1476 1478 1479 1480 1481 1482 1483 1484 1485 1485 1486 1486 1485 1485 1485 1485 1484 1484 1482 1481 1480 1480 1479 1480 1479 1479 1479 1479 1479 1479 1479 1478 1478 1478 1478
1468 1469 1470 1470 1471 1472 1473 1474 1475 1476 1477 1479 1480 1481 1482 1483 1484 1484 1484 1484 1484 1484 1484 1484 1484 1483 1482 1481 1480 1479 1478 1478 1477 1477 1477 1477 1477 1477 1477 1476 1476 1475 1474 1474
1467 1468 1469 1470 1471 1471 1472 1473 1474 1476 1477 1478 1479 1480 1481 1482 1482 1483 1483 1483 1483 1483 1483 1482 1482 1481 1481 1480 1478 1478 1477 1476 1476 1475 1475 1475 1474 1474 1474 1473 1473 1473 1472 1471
1467 1467 1468 1469 1470 1471 1472 1473 1474 1475 1477 1478 1479 1479 1480 1480 1480 1481 1481 1481 1481 1481 1480 1480 1480 1479 1479 1478 1476 1476 1475 1474 1473 1473 1473 1472 1472 1471 1471 1471 1470 1469 1469 1468
1465 1466 1467 1468 1469 1470 1471 1472 1474 1475 1476 1477 1478 1478 1478 1478 1478 1479 1479 1479 1479 1478 1478 1478 1477 1476 1475 1474 1474 1473 1473 1472 1471 1471 1471 1470 1469 1469 1468 1468 1467 1466 1465 1465
1464 1465 1466 1467 1468 1469 1470 1471 1473 1473 1474 1475 1476 1476 1476 1477 1477 1477 1477 1477 1476 1476 1475 1474 1474 1473 1472 1471 1471 1471 1470 1470 1469 1469 1468 1467 1466 1466 1465 1464 1464 1463 1462 1462
1462 1463 1464 1465 1467 1468 1469 1470 1471 1472 1473 1473 1474 1474 1474 1474 1475 1474 1474 1474 1474 1473 1472 1472 1470 1470 1469 1469 1468 1467 1467 1467 1466 1465 1465 1464 1463 1462 1462 1461 1460 1459 1459 1458
1460 1461 1463 1464 1466 1467 1468 1469 1470 1470 1471 1471 1472 1472 1472 1472 1472 1472 1472 1471 1471 1471 1470 1468 1467 1467 1467 1466 1465 1465 1465 1464 1463 1462 1462 1461 1460 1459 1458 1457 1456 1456 1455 1454
1458 1460 1461 1463 1464 1465 1466 1467 1468 1468 1469 1469 1469 1470 1470 1470 1470 1469 1469 1469 1468 1467 1466 1465 1465 1464 1464 1463 1462 1462 1462 1461 1460 1459 1458 1457 1457 1455 1454 1453 1453 1452 1450 1449
1456 1458 1460 1461 1462 1464 1465 1466 1466 1466 1467 1467 1467 1467 1467 1467 1467 1466 1466 1466 1465 1464 1463 1463 1462 1461 1460 1459 1459 1459 1458 1457 1456 1455 1455 1454 1453 1452 1450 1449 1448 1447 1446 1445
1456 1457 1458 1460 1461 1462 1463 1463 1464 1464 1464 1464 1464 1464 1465 1465 1465 1464 1464 1463 1462 1461 1460 1459 1458 1457 1456 1456 1455 1455 1454 1453 1452 1451 1450 1449 1448 1447 1446 1445 1444 1443 1442 1441
1456 1457 1458 1459 1460 1460 1461 1461 1462 1462 1462 1462 1462 1462 1462 1462 1462 1461 1461 1460 1458 1457 1457 1456 1454 1453 1452 1452 1451 1450 1449 1449 1448 1446 1445 1444 1443 1442 1441 1440 1439 1438 1437 1436
1456 1457 1457 1458 1458 1459 1459 1460 1460 1460 1460 1460 1461 1460 1460 1460 1460 1459 1457 1456 1455 1454 1453 1452 1451 1450 1449 1448 1447 1446 1445 1444 1443 1442 1440 1439 1438 1437 1436 1435 1434 1433 1432 1431
1456 1457 1457 1457 1458 1458 1458 1458 1459 1459 1459 1459 1459 1459 1459 1458 1457 1456 1455 1454 1453 1451 1450 1449 1448 1447 1446 1445 1443 1442 1441 1439 1438 1437 1435 1434 1433 1432 1431 1430 1429 1428 1427 1426
1456 1456 1456 1457 1457 1457 1457 1458 1458 1458 1458 1458 1457 1457 1457 1456 1455 1454 1453 1451 1450 1449 1448 1447 1445 1444 1443 1441 1440 1438 1437 1435 1433 1432 1430 1429 1428 1426 1425 1424 1423 1422 1422 1421